Погода в Лаврентьевке

Россия / Оренбургская область     52°25′01″N   51°40′17″E
темп.,
°C
ветер,
м/с
пор.,
м/с
влажн.,
%
обл.,
%
осадки,
мм/ч
давл.,
гПа
погр.,
м
5 августа, чт
чт523:00+27ссз61147100 0.0 1010325
02:00+23ссз596360 0.0 1011282
05:00+21с4775100 0.0 1010152
08:00+20ссз57783 0.0 1013331
11:00+24ссз6757100 0.1 1012853
14:00+28ссз6738100 0.0 10121778
17:00+29ссз67270 0.0 10122651
20:00+28ссз692857 0.0 1012529
6 августа, пт
пт623:00+22ссз7133281 0.0 1014450
02:00+18ссз4106252 0.0 1014202
05:00+16ссз37690 0.0 1014116
08:00+19с47593 0.0 1015233
11:00+24с453973 0.0 10151550
14:00+28с45295 0.0 10142349
17:00+29с552372 0.0 10142630
20:00+26с46275 0.0 1014204
7 августа, сб
сб723:00+20с34355 0.0 101557
02:00+18ссв463898 0.0 101695
05:00+16всв354563 0.0 101678
08:00+18в35395 0.0 1017164
11:00+25всв33260 0.0 1017985
14:00+29ссв34225 0.0 10161737
17:00+30ссв44245 0.0 10151992
20:00+28св46305 0.0 1016162
8 августа, вс
вс823:00+22всв411425 0.0 1017200
02:00+19в345060 0.0 101870
05:00+18всв225581 0.0 101825
08:00+19всв365098 0.0 1019192
11:00+26всв4533100 0.0 1019734
14:00+30св452635 0.0 10181682
17:00+32св442519 0.0 10172087
20:00+29св463099 0.0 1017171
9 августа, пн
пн923:00+24всв3339100 0.0 101825
02:00+22в3745100 0.0 1018145
05:00+21в2242100 0.0 101929
08:00+22в2537100 0.0 1019154
11:00+27в562793 0.0 1019699
14:00+31всв4525100 0.0 10181473
17:00+31всв552543 0.0 10171842
20:00+29в572898 0.0 1016314